Regional Weather Roundup
Issued by NWS Charleston, SC

Current Version | Previous Version | Graphics & Text | Print | Product List | Glossary On
Versions: 1 2 3 4 5 6 7 8 9 10 11 12 13 14 15 16 17 18 19 20 21 22 23 24 25 26 27 28 29 30 31 32 33 34 35 36 37 38 39 40 41 42 43 44 45 46 47 48 49 50
000
ASUS42 KCHS 212012
RWRCHS

REGIONAL WEATHER ROUNDUP
NATIONAL WEATHER SERVICE CHARLESTON SC
300 PM EST SAT JAN 21 2017

NOTE: "FAIR" INDICATES FEW OR NO CLOUDS BELOW 12,000 FEET WITH NO
SIGNIFICANT WEATHER AND/OR OBSTRUCTIONS TO VISIBILITY.

NOT ALL STATIONS ARE QUALITY CONTROLLED. USE DATA WITH CAUTION...
ESPECIALLY DEWPOINT OBSERVATIONS.

SCZ027-030-031-034>040-042>050-212100-
...SOUTHEAST SOUTH CAROLINA...

CITY           SKY/WX    TMP DP  RH WIND       PRES   REMARKS
N CHARLESTON   CLOUDY    68  65  90 S12       29.74F
WATERFRONT PRK   N/A     63  63 100 S7        29.76F
MOUNT PLEASANT CLOUDY    66  64  94 S10       29.76F FOG
JOHNS ISLAND   FOG       64  64 100 SE5G12    29.75F VSB 1/4
PINOPOLIS        N/A     66  66 100 CALM      29.67F
MONCKS CORNER  CLOUDY    66  64  94 S5        29.74F FOG
SUMMERVILLE    CLOUDY   N/A N/A N/A SE6       29.75F
BEAUFORT MCAS  CLOUDY    66  64  93 S9        29.72F FOG
BEAUFORT ARPT  CLOUDY    66  64  94 S8        29.73F FOG
HILTON HEAD IS FOG       64  63  94 S12       29.74F VSB 1/4
WALTERBORO     CLOUDY    70  64  83 SE9       29.72F
ALLENDALE      MOCLDY    72  66  83 SE9       29.67F

...SOUTHERN MIDLANDS AND PEE DEE...

CITY           SKY/WX    TMP DP  RH WIND       PRES   REMARKS
GEORGETOWN     CLOUDY    64  64 100 S8        29.79F
KINGSTREE      DRIZZLE   64  63  94 E8        29.75F
ORANGEBURG     CLOUDY    69  65  86 SE8       29.71F
BARNWELL       RAIN      70  68  94 CALM      29.68F
AIKEN          RAIN      63  61  94 E7        29.72F
MANNING        CLOUDY    64  63  94 S3        29.74F
COLUMBIA       LGT RAIN  65  63  93 E7        29.70F FOG
SUMTER         CLOUDY    64  64 100 E6        29.71F
FLORENCE       CLOUDY    67  64  90 S10       29.75F
MYRTLE BEACH   CLOUDY    63  61  94 S9        29.80  FOG
N MYRTLE BEACH CLOUDY    63  62  97 SE6       29.78F FOG

$$

GAZ063-065-086>088-099>101-113>116-118-119-134>141-150-212100-
...SOUTHEAST GEORGIA...

CITY           SKY/WX    TMP DP  RH WIND       PRES   REMARKS
SAVANNAH ARPT  CLOUDY    73  64  73 S13       29.70F
HUNTER AAF     CLOUDY    71  69  94 SE10      29.69F
FORT STEWART   PTSUNNY   78  63  60 VRB6G17   29.67F
STATESBORO     TSTM      61  60  97 NW9G49    29.74R VSB 1
SYLVANIA       TSTM     N/A N/A N/A W25G40    29.75R
CLAXTON        TSTM     N/A N/A N/A W23G36    29.76R

...CSRA...CENTRAL AND FAR SOUTHEAST GEORGIA...

CITY           SKY/WX    TMP DP  RH WIND       PRES   REMARKS
THOMSON        CLOUDY    66  66 100 S15G24    29.63F
AUGUSTA-BUSH   RAIN      67  64  90 N8        29.65F FOG
AUGUSTA-DANIEL HVY RAIN  65  61  87 VRB5      29.68S FOG
SWAINSBORO     NOT AVBL
VIDALIA        TSTM      63  63 100 SW5       29.71F
EASTMAN        RAIN      63  63 100 S3        29.75F
HAZLEHURST     CLOUDY    63  63 100 S3        29.75R
ALMA           TSTM      63  62  97 W21G31    29.78R VSB 1
WAYCROSS       CLOUDY    82  66  59 SW23G30   29.72S
JESUP          MOCLDY    79  61  53 SW14G23   29.71F
BAXLEY         TSTM      63  63 100 NW10G33   29.76R VSB 1/4
BRUNSWICK      PTSUNNY   73  68  83 SE12G18   29.73F
SAINT SIMONS   PTSUNNY   69  65  86 S9        29.73F

$$

SCZ027-028-034-036>038-045-046-048>050-GAZ119-141-212100-
...LAKE AND SUPPLEMENTAL COASTAL OBSERVATIONS...

STATION/POSITION TIME  TEMP    WIND        PRES    WAVE   SWELL
                       AIR SEA DIR/SP/G            HT/PER HT/PER/DIR
                 (UTC) (F)     (DEG/KT/KT) (MB)    (FT/S) (FT/S/D)
WINYAH BAY       NOT AVBL
LAKE MURRAY      1920   62     110/  6/ 11 1006.4
ACE BASIN NERRS  1845   64        CALM     1009.0
FORT PULASKI     1948   67 58  200/  7/ 12 1006.9F
SAPELO ISLAND    1900   68     170/ 13     1008.0

$$

ANZ835-935-AMZ111-154-330-350-352-354-370-450-454-472-212100-
...C-MAN AND BUOY OBSERVATIONS...

STATION/POSITION TIME  TEMP    WIND        PRES    WAVE   SWELL
                       AIR SEA DIR/SP/G            HT/PER HT/PER/DIR
                 (UTC) (F)     (DEG/KT/KT) (MB)    (FT/S) (FT/S/D)
BUOY 41004       1850   69 67  190/  6/  8 1009.2    2/ 9   2/110/ 9
BUOY 41008       1850   63 61  160/ 14/ 17 1008.0    2/12   2/ 30/12
FOLLY BEACH CMAN 1900   61     180/  8/  9 1009.6F
CAPERS NEARSHORE 1908   59 57  190/  4/  6 1008.7F
FRIPP NEARSHORE  1908   62 59  150/  8/ 12 1007.9F


STATION/POSITION TIME  TEMP    WIND        PRES    WAVE   SWELL
                       AIR SEA DIR/SP/G            HT/PER HT/PER/DIR
                 (UTC) (F)     (DEG/KT/KT) (MB)    (FT/S) (FT/S/D)
5E ST. MARYS GA  1930      64                N/A     2/13   2/ 70/13
FRYING PAN BUOY  1950   71 71  140/ 12/ 16 1008.9F   2/11   2/120/11
BUOY 41025       1950   69 74  160/ 10/ 12 1009.8F   4/11   3/ 60/11
CAPE LOOKOUT NC  1900   64      60/  4/  5 1009.6F
BUOY 41002       1850   71 71  160/  6/  8 1012.2    5/12   5/ 20/12
BUOY 41010       NOT AVBL
ST AUGUSTINE FL  2000   80 65  200/ 17/ 22 1008.6F


$$




USA.gov is the U.S. government's official web portal to all federal, state and local government web resources and services.